FDX8483 LIPE-LJLJ

Flight info

Callsign FDX8483
Flight time 0h 38m
Altitude 24000
Route LUMAV M859 TULIK P125 ROSKA M859 BARPI BARPI2L
Aircraft B77L/H-SDE1E2E3FGHIJ2J3J4J5M1RWXY/LB1D1

Departure

Time 2026-04-14 15:49
Airport Bologna Guglielmo Marconi Airport (LIPE)

Arrival

Time 2026-04-14 16:27
Airport Ljubljana Jože Pučnik Airport (LJLJ)
Time Latitude Longitude Altitude Speed Heading
2026-04-14 15:10 44.52909 11.29668 127 ft 0 kts 206°
2026-04-14 15:36 44.52917 11.29674 137 ft 2 kts 206°
2026-04-14 15:36 44.52933 11.29687 137 ft 3 kts 218°
2026-04-14 15:36 44.52946 11.29707 137 ft 3 kts 240°
2026-04-14 15:36 44.52953 11.29734 137 ft 3 kts 262°
2026-04-14 15:37 44.52953 11.29763 137 ft 3 kts 281°
2026-04-14 15:37 44.52947 11.29787 137 ft 0 kts 296°
2026-04-14 15:40 44.52967 11.29745 137 ft 9 kts 308°
2026-04-14 15:40 44.53001 11.29679 137 ft 7 kts 300°
2026-04-14 15:41 44.53024 11.29626 137 ft 5 kts 298°
2026-04-14 15:41 44.53052 11.29568 137 ft 10 kts 330°
2026-04-14 15:41 44.53115 11.29513 137 ft 19 kts 300°
2026-04-14 15:41 44.53181 11.29328 137 ft 21 kts 295°
2026-04-14 15:42 44.53243 11.29161 137 ft 18 kts 297°
2026-04-14 15:42 44.53292 11.29021 137 ft 15 kts 297°
2026-04-14 15:42 44.53333 11.28907 137 ft 12 kts 295°
2026-04-14 15:42 44.53368 11.28804 137 ft 14 kts 296°
2026-04-14 15:43 44.53410 11.28686 137 ft 12 kts 296°
2026-04-14 15:43 44.53455 11.28562 137 ft 15 kts 297°
2026-04-14 15:43 44.53498 11.28445 137 ft 12 kts 297°
2026-04-14 15:43 44.53534 11.28346 137 ft 10 kts 297°
2026-04-14 15:44 44.53568 11.28251 137 ft 12 kts 296°
2026-04-14 15:44 44.53609 11.28136 137 ft 18 kts 296°
2026-04-14 15:44 44.53665 11.27981 137 ft 17 kts 296°
2026-04-14 15:44 44.53713 11.27846 137 ft 14 kts 296°
2026-04-14 15:45 44.53741 11.27769 137 ft 13 kts 296°
2026-04-14 15:45 44.53777 11.27669 137 ft 10 kts 296°
2026-04-14 15:45 44.53806 11.27586 137 ft 8 kts 296°
2026-04-14 15:45 44.53831 11.27516 137 ft 10 kts 296°
2026-04-14 15:46 44.53867 11.27419 137 ft 11 kts 297°
2026-04-14 15:46 44.53924 11.27325 137 ft 12 kts 308°
2026-04-14 15:46 44.53979 11.27267 137 ft 9 kts 327°
2026-04-14 15:46 44.54040 11.27223 137 ft 13 kts 357°
2026-04-14 15:47 44.54094 11.27303 137 ft 11 kts 86°
2026-04-14 15:47 44.54085 11.27360 137 ft 0 kts 112°
2026-04-14 15:48 44.54085 11.27361 137 ft 0 kts 112°
2026-04-14 15:48 44.54045 11.27480 137 ft 49 kts 116°
2026-04-14 15:48 44.53755 11.28287 137 ft 135 kts 117°
2026-04-14 15:49 44.53221 11.29760 346 ft 192 kts 116°
2026-04-14 15:49 44.52577 11.31475 1319 ft 203 kts 117°
2026-04-14 15:49 44.51874 11.33180 2594 ft 198 kts 119°
2026-04-14 15:49 44.51348 11.34824 3788 ft 178 kts 102°
2026-04-14 15:50 44.51511 11.36481 4525 ft 174 kts 64°
2026-04-14 15:50 44.52404 11.37662 4980 ft 189 kts 27°
2026-04-14 15:50 44.53781 11.38050 5222 ft 214 kts
2026-04-14 15:50 44.55339 11.38127 5401 ft 243 kts
2026-04-14 15:51 44.57116 11.38416 5400 ft 264 kts 10°
2026-04-14 15:51 44.58869 11.39003 5855 ft 256 kts 17°
2026-04-14 15:51 44.60527 11.39906 6343 ft 256 kts 25°
2026-04-14 15:51 44.62101 11.41114 6850 ft 262 kts 31°
2026-04-14 15:52 44.63653 11.42511 7359 ft 270 kts 34°
2026-04-14 15:52 44.65192 11.44028 7860 ft 268 kts 37°
2026-04-14 15:52 44.66680 11.45596 8358 ft 268 kts 38°
2026-04-14 15:52 44.68163 11.47203 8860 ft 270 kts 38°
2026-04-14 15:53 44.69655 11.48827 9361 ft 273 kts 38°
2026-04-14 15:53 44.71163 11.50467 9863 ft 275 kts 39°
2026-04-14 15:53 44.72686 11.52121 10364 ft 278 kts 39°
2026-04-14 15:53 44.74208 11.53777 10860 ft 281 kts 39°
2026-04-14 15:54 44.77329 11.57170 11862 ft 286 kts 39°
2026-04-14 15:54 44.78917 11.58896 12365 ft 289 kts 39°
2026-04-14 15:54 44.80451 11.60737 12874 ft 291 kts 46°
2026-04-14 15:55 44.81729 11.62950 13379 ft 292 kts 56°
2026-04-14 15:55 44.82856 11.65343 13880 ft 294 kts 59°
2026-04-14 15:55 44.83907 11.67835 14383 ft 297 kts 62°
2026-04-14 15:55 44.84904 11.70395 14885 ft 299 kts 63°
2026-04-14 15:56 44.85895 11.72989 15387 ft 302 kts 63°
2026-04-14 15:56 44.86887 11.75568 15882 ft 304 kts 63°
2026-04-14 15:56 44.87901 11.78191 16383 ft 306 kts 63°
2026-04-14 15:56 44.88926 11.80837 16885 ft 309 kts 63°
2026-04-14 15:57 44.89962 11.83509 17387 ft 311 kts 63°
2026-04-14 15:57 44.91004 11.86195 17887 ft 314 kts 63°
2026-04-14 15:57 44.92055 11.88906 18389 ft 316 kts 63°
2026-04-14 15:57 44.93127 11.91642 18892 ft 319 kts 62°
2026-04-14 15:58 44.94208 11.94389 19393 ft 321 kts 63°
2026-04-14 15:58 44.95289 11.97171 19895 ft 324 kts 63°
2026-04-14 15:58 44.96373 11.99983 20397 ft 327 kts 63°
2026-04-14 15:58 44.97461 12.02819 20897 ft 330 kts 63°
2026-04-14 15:59 44.98560 12.05691 21399 ft 334 kts 63°
2026-04-14 15:59 44.99670 12.08596 21900 ft 337 kts 63°
2026-04-14 15:59 45.00789 12.11529 22402 ft 340 kts 64°
2026-04-14 15:59 45.01915 12.14483 22903 ft 343 kts 64°
2026-04-14 16:00 45.03037 12.17428 23398 ft 346 kts 64°
2026-04-14 16:00 45.04199 12.20480 23849 ft 361 kts 63°
2026-04-14 16:00 45.05424 12.23692 24012 ft 380 kts 63°
2026-04-14 16:00 45.06711 12.27071 24023 ft 401 kts 63°
2026-04-14 16:01 45.08092 12.30616 24023 ft 421 kts 62°
2026-04-14 16:01 45.09609 12.34271 24017 ft 441 kts 60°
2026-04-14 16:01 45.11228 12.38038 24014 ft 454 kts 60°
2026-04-14 16:01 45.12904 12.41897 24012 ft 462 kts 59°
2026-04-14 16:02 45.14600 12.45793 24017 ft 466 kts 60°
2026-04-14 16:02 45.16270 12.49727 24016 ft 466 kts 60°
2026-04-14 16:02 45.17923 12.53683 24016 ft 466 kts 60°
2026-04-14 16:02 45.19571 12.57649 24010 ft 467 kts 61°
2026-04-14 16:03 45.21223 12.61619 24019 ft 466 kts 61°
2026-04-14 16:03 45.22850 12.65529 24021 ft 466 kts 61°
2026-04-14 16:03 45.24492 12.69489 24020 ft 466 kts 61°
2026-04-14 16:03 45.26143 12.73478 24011 ft 471 kts 61°
2026-04-14 16:04 45.27804 12.77482 24044 ft 468 kts 60°
2026-04-14 16:04 45.29460 12.81452 24020 ft 466 kts 61°
2026-04-14 16:04 45.31082 12.85412 24029 ft 457 kts 61°
2026-04-14 16:04 45.32661 12.89241 24017 ft 441 kts 60°
2026-04-14 16:05 45.34229 12.92928 24019 ft 430 kts 60°
2026-04-14 16:05 45.35760 12.96551 23953 ft 425 kts 60°
2026-04-14 16:05 45.37261 13.00149 23606 ft 420 kts 61°
2026-04-14 16:05 45.38738 13.03711 23232 ft 417 kts 61°
2026-04-14 16:06 45.40181 13.07206 22862 ft 414 kts 61°
2026-04-14 16:06 45.41638 13.10740 22484 ft 412 kts 61°
2026-04-14 16:06 45.43083 13.14249 22109 ft 410 kts 61°
2026-04-14 16:06 45.44518 13.17734 21735 ft 408 kts 61°
2026-04-14 16:07 45.45948 13.21209 21359 ft 405 kts 61°
2026-04-14 16:07 45.47374 13.24671 20982 ft 403 kts 61°
2026-04-14 16:07 45.48788 13.28111 20606 ft 402 kts 61°
2026-04-14 16:07 45.50191 13.31558 20229 ft 400 kts 62°
2026-04-14 16:08 45.51576 13.34989 19855 ft 398 kts 62°
2026-04-14 16:08 45.52949 13.38394 19481 ft 394 kts 62°
2026-04-14 16:08 45.54306 13.41762 19106 ft 389 kts 62°
2026-04-14 16:08 45.55660 13.45084 18730 ft 385 kts 61°
2026-04-14 16:09 45.56986 13.48332 18359 ft 381 kts 61°
2026-04-14 16:09 45.58314 13.51591 17984 ft 377 kts 62°
2026-04-14 16:09 45.59618 13.54809 17609 ft 373 kts 62°
2026-04-14 16:09 45.60908 13.57999 17235 ft 370 kts 62°
2026-04-14 16:10 45.62189 13.61176 16859 ft 366 kts 62°
2026-04-14 16:10 45.63455 13.64322 16485 ft 363 kts 62°
2026-04-14 16:10 45.64706 13.67437 16110 ft 360 kts 62°
2026-04-14 16:10 45.65947 13.70530 15735 ft 357 kts 62°
2026-04-14 16:11 45.67173 13.73590 15360 ft 354 kts 62°
2026-04-14 16:11 45.68378 13.76598 14989 ft 351 kts 62°
2026-04-14 16:11 45.69587 13.79621 14614 ft 349 kts 62°
2026-04-14 16:11 45.70784 13.82618 14239 ft 346 kts 62°
2026-04-14 16:12 45.71977 13.85605 13862 ft 344 kts 62°
2026-04-14 16:12 45.73158 13.88564 13488 ft 342 kts 62°
2026-04-14 16:12 45.74338 13.91524 13112 ft 339 kts 62°
2026-04-14 16:12 45.75506 13.94454 12736 ft 337 kts 62°
2026-04-14 16:13 45.76685 13.97342 12360 ft 335 kts 61°
2026-04-14 16:13 45.77874 14.00198 11985 ft 333 kts 61°
2026-04-14 16:13 45.79041 14.03055 11610 ft 331 kts 62°
2026-04-14 16:13 45.80188 14.05907 11235 ft 329 kts 62°
2026-04-14 16:14 45.81318 14.08746 10859 ft 327 kts 62°
2026-04-14 16:14 45.82438 14.11572 10485 ft 325 kts 62°
2026-04-14 16:14 45.83548 14.14387 10108 ft 323 kts 62°
2026-04-14 16:14 45.84639 14.17150 9735 ft 321 kts 62°
2026-04-14 16:15 45.85733 14.19928 9360 ft 319 kts 62°
2026-04-14 16:15 45.86819 14.22688 8984 ft 317 kts 62°
2026-04-14 16:15 45.87898 14.25429 8606 ft 314 kts 62°
2026-04-14 16:15 45.88967 14.28150 8235 ft 312 kts 62°
2026-04-14 16:16 45.90030 14.30852 7859 ft 309 kts 62°
2026-04-14 16:16 45.91087 14.33538 7481 ft 307 kts 61°
2026-04-14 16:16 45.92135 14.36197 7165 ft 304 kts 61°
2026-04-14 16:16 45.93171 14.38807 6894 ft 299 kts 60°
2026-04-14 16:17 45.94190 14.41387 6650 ft 293 kts 61°
2026-04-14 16:17 45.95181 14.43911 6475 ft 286 kts 61°
2026-04-14 16:17 45.96146 14.46389 6295 ft 280 kts 60°
2026-04-14 16:17 45.97090 14.48802 6122 ft 274 kts 60°
2026-04-14 16:18 45.98014 14.51162 5922 ft 268 kts 60°
2026-04-14 16:18 45.98920 14.53478 5721 ft 263 kts 60°
2026-04-14 16:18 45.99673 14.55817 5518 ft 258 kts 71°
2026-04-14 16:18 46.00052 14.58316 5321 ft 254 kts 80°
2026-04-14 16:19 46.00242 14.60820 5111 ft 250 kts 85°
2026-04-14 16:19 46.00259 14.63303 4919 ft 246 kts 90°
2026-04-14 16:19 46.00232 14.65720 4796 ft 236 kts 86°
2026-04-14 16:19 46.00628 14.67929 4688 ft 225 kts 63°
2026-04-14 16:20 46.01583 14.69630 4586 ft 213 kts 46°
2026-04-14 16:20 46.02634 14.71045 4523 ft 200 kts 42°
2026-04-14 16:20 46.03665 14.72296 4508 ft 188 kts 40°
2026-04-14 16:20 46.04640 14.73435 4557 ft 179 kts 39°
2026-04-14 16:21 46.05620 14.74551 4623 ft 180 kts 36°
2026-04-14 16:21 46.06779 14.75223 4748 ft 184 kts
2026-04-14 16:21 46.07997 14.74735 4879 ft 187 kts 330°
2026-04-14 16:21 46.08799 14.73272 4932 ft 189 kts 301°
2026-04-14 16:22 46.09337 14.71545 4916 ft 190 kts 300°
2026-04-14 16:22 46.10030 14.69889 4760 ft 193 kts 305°
2026-04-14 16:22 46.10790 14.68323 4626 ft 188 kts 308°
2026-04-14 16:22 46.11564 14.66814 4479 ft 186 kts 309°
2026-04-14 16:23 46.12316 14.65354 4256 ft 176 kts 309°
2026-04-14 16:23 46.13018 14.63989 4022 ft 168 kts 309°
2026-04-14 16:23 46.13708 14.62645 3795 ft 162 kts 309°
2026-04-14 16:23 46.14366 14.61366 3610 ft 156 kts 309°
2026-04-14 16:24 46.15011 14.60110 3412 ft 156 kts 309°
2026-04-14 16:24 46.15660 14.58847 3183 ft 156 kts 308°
2026-04-14 16:24 46.16296 14.57607 2976 ft 156 kts 308°
2026-04-14 16:24 46.16940 14.56352 2766 ft 155 kts 308°
2026-04-14 16:25 46.17584 14.55097 2560 ft 156 kts 308°
2026-04-14 16:25 46.18233 14.53831 2341 ft 159 kts 309°
2026-04-14 16:25 46.18898 14.52536 2144 ft 162 kts 308°
2026-04-14 16:25 46.19575 14.51215 1921 ft 165 kts 307°
2026-04-14 16:26 46.20263 14.49874 1698 ft 166 kts 306°
2026-04-14 16:26 46.20939 14.48553 1481 ft 161 kts 306°
2026-04-14 16:26 46.21594 14.47267 1319 ft 155 kts 305°
2026-04-14 16:26 46.22185 14.46108 1289 ft 128 kts 307°
2026-04-14 16:27 46.22634 14.45236 1287 ft 87 kts 306°
2026-04-14 16:27 46.22866 14.44783 1287 ft 44 kts 305°
2026-04-14 16:27 46.23032 14.44459 1287 ft 37 kts 307°
2026-04-14 16:27 46.23177 14.44183 1287 ft 32 kts 313°
2026-04-14 16:28 46.23318 14.44087 1287 ft 17 kts
2026-04-14 16:28 46.23395 14.44165 1287 ft 14 kts 81°
2026-04-14 16:28 46.23357 14.44298 1287 ft 16 kts 124°
2026-04-14 16:28 46.23294 14.44420 1287 ft 17 kts 127°
2026-04-14 16:29 46.23226 14.44553 1287 ft 17 kts 126°
2026-04-14 16:29 46.23136 14.44731 1287 ft 27 kts 127°
2026-04-14 16:29 46.23027 14.44944 1287 ft 24 kts 126°
2026-04-14 16:29 46.22935 14.45124 1287 ft 20 kts 126°
2026-04-14 16:30 46.22876 14.45240 1287 ft 10 kts 126°
2026-04-14 16:30 46.22861 14.45317 1287 ft 8 kts 58°
2026-04-14 16:30 46.22904 14.45374 1287 ft 10 kts 40°
2026-04-14 16:30 46.22925 14.45445 1287 ft 6 kts 103°
2026-04-14 16:31 46.22910 14.45491 1287 ft 7 kts 120°
2026-04-14 16:31 46.22898 14.45544 1287 ft 3 kts 71°
2026-04-14 16:31 46.22907 14.45563 1287 ft 2 kts 52°
2026-04-14 16:31 46.22912 14.45571 1287 ft 1 kts 48°
2026-04-14 16:32 46.22925 14.45588 1287 ft 0 kts 39°